Flag for Norway Weather past 2 weeks in Ørsta, Norway

Now
64 °F

Scattered clouds.


Feels Like: 64 °F
Forecast: 58 / 67 °F
Wind: 2 mph from North

Location: Orsta-Volda / Hovden

Current Time: Jul 30, 2014 at 1:14:17 AM

Latest Report: Jul 29, 2014 at 9:50 PM


Visibility: N/A

Pressure: 29.74 "Hg

Humidity: 78%

Dew point: 57 °F

Location of ØrstaLocation

Historic Weather in Ørsta — Graph

°F

Ørsta temperature yesterday

Maximum temperature yesterday: 70 °F (at 2:50 PM)
Minimum temperature yesterday: 59 °F (at 5:50 AM)
Average temperature yesterday: 65 °F

Past Weeks' High & Low Weather Summary

 TemperatureHumidityPressure
High84 °F (Jul 20, 1:50 PM)100% (Jul 23, 6:50 AM)30.39 "Hg (Jul 23, 6:50 AM)
Low55 °F (Jul 17, 5:50 AM)32% (Jul 21, 12:50 PM)29.68 "Hg (Jul 14, 9:50 PM)
Average68 °F73%30.06 "Hg
* Reported Jul 14 9:50 PM — Jul 29 9:50 PM, Ørsta, Weather by CustomWeather, © 2014

Note: Actual official high and low records may vary slightly from our data, if they occured in-between our weather recording intervals... More about our weather records

Advertising

Ørsta weather history for previous 24 hours

 ConditionsComfort  
Time TempWeatherWind HumidityBarometerVisibility
9:50 PM
Jul 29
64 °FScattered clouds.2 mph78%29.74 "HgN/A
8:50 PM66 °FScattered clouds.2 mph73%29.74 "HgN/A
7:50 PM66 °FScattered clouds.3 mph78%29.74 "HgN/A
6:50 PM68 °FPartly sunny.3 mph69%29.74 "HgN/A
5:50 PM68 °FPartly sunny.5 mph69%29.77 "HgN/A
4:50 PM68 °FBroken clouds.5 mph73%29.77 "HgN/A
3:50 PM68 °FBroken clouds.5 mph73%29.80 "HgN/A
2:50 PM70 °FBroken clouds.3 mph73%29.80 "HgN/A
1:50 PM68 °FBroken clouds.2 mph73%29.83 "HgN/A
12:50 PM66 °FBroken clouds.2 mph83%29.83 "HgN/A
11:50 AM63 °FSprinkles. Broken clouds.3 mph94%29.83 "HgN/A
11:20 AM63 °FSprinkles. Broken clouds.3 mph94%29.86 "HgN/A
10:50 AM64 °FSprinkles. Broken clouds.9 mph88%29.83 "HgN/A
9:50 AM66 °FScattered showers. Broken clouds.3 mph88%29.83 "HgN/A
8:50 AM64 °FBroken clouds.3 mph88%29.86 "HgN/A
7:50 AM63 °FBroken clouds.No wind94%29.86 "HgN/A
6:50 AM63 °FBroken clouds.No wind94%29.86 "HgN/A
6:20 AM61 °FBroken clouds.No wind100%29.86 "HgN/A
5:50 AM59 °FPartly cloudy.No wind100%29.89 "HgN/A
Weather by CustomWeather, © 2014

See weather overviewHow to use our weather pages